Tracking 19224 objects as of 22-Jul-2018
HD Live streaming from Space Station
objects crossing your sky now

FENGYUN 1C DEB

Track FENGYUN 1C DEB now!
10-day predictions


NORAD ID: 30531
Int'l Code: 1999-025AJV
Perigee: 802.1 km
Apogee: 876.7 km
Inclination: 102.3 °
Period: 101.6 minutes
Semi major axis: 7210 km
RCS: 0.0087 m2 (small)
Launch date: May 10, 1999
Source: People's Republic of China (PRC)
Launch site: Taiyaun Space Center, China (TSC)

Note: This is SATELLITE DEBRIS
aabbcc
Your satellite tracking list
Your tracking list is empty




NASA's NSSDC Master Catalog

Two Line Element Set (TLE):
1 30531U 99025AJV 18202.27554457  .00001040  00000-0  53809-3 0  9992
2 30531 102.3304 335.3737 0051718 241.8869 183.7902 14.17965081591522
Source of the keplerian elements: AFSPC